Ana Sayfa
METAR-TAF:

METAR-TAF

Havaalanları :

Manassas Regional Airport (Harry P. Davis Field)

Manassas, Virginia, Amerika Birleşik Devletleri

Enlem: 38-43N, Boylam: 077-31W, yükseklik: 59 m

Güncel hava durumu gözlemi

Rapor saat 04:56 UTC de 51 dakika önce yapıldı.
Rüzgar kuzeybatıdan 13 kt ve 19 kt'a kadar ani rüzgarlar
Sıcaklık 11°C
Nem 37%
Basınç 1012 hPa
Görüş mesafesi: 16.1 km
Açık gökyüzü

METAR: KHEF 030456Z AUTO 32013G19KT 10SM CLR 11/M03 A2987 RMK AO2 SLP120 T01111033

Saat: 01:47 (05:47 UTC)


TAF: eksik

4.000'den fazla havaalanı için hava durumu gözlemleri ve tahminleri (METAR ve TAF raporları).

Kullanılabilir istasyonlar harita üzerinde sarı ve kırmızı noktalarla gösterilir.

İstasyonun adını görmek için fareyi noktanın üzerinde gezdirin.

Sonrasında hava gözlem ve tahminlerini görmek için tıklayın.

Haritayı değiştirmek için: yaklaştırmak için siyah artı işaretli yeşil düğmeye ve uzaklaştırmak için de eksi işaretli düğmeye hızla tıklayın; bitişik haritalar için yeşil okları kullanın.


METAR-TAF: